Regional Weather Roundup
Issued by NWS

Home | Current Version | Previous Version | Graphics & Text | Print | Product List | Glossary On
Versions: 1 2 3 4 5 6 7 8 9 10 11 12 13 14 15 16 17 18 19 20 21 22 23 24 25 26 27 28 29 30 31 32 33 34 35 36 37 38 39 40 41 42 43 44 45 46 47 48 49 50
000
ASUS45 KCYS 220310
RWRWY

WYOMING REGIONAL WEATHER ROUNDUP
NATIONAL WEATHER SERVICE CHEYENNE WY
900 PM MDT MON JUL 21 2014

NOTE:  "FAIR" INDICATES FEW OR NO CLOUDS BELOW 12,000 FEET
WITH NO SIGNIFICANT WEATHER AND/OR OBSTRUCTIONS TO VISIBILITY.

WYZ001-220400-
YELLOWSTONE NATIONAL PARK

CITY           SKY/WX    TMP DP  RH WIND       PRES   REMARKS
LK YELLOWSTONE   N/A     53  49  86 CALM      30.39R
W YELLOWSTONE  NOT AVBL

$$
WYZ002>013-054>058-071-098>099-220400-
NORTHERN WYOMING

CITY           SKY/WX    TMP DP  RH WIND       PRES   REMARKS
JACKSON        NOT AVBL
CODY           CLOUDY    70  46  43 NW3       30.15R
GREYBULL       MOCLDY    81  45  28 NW14G36   30.05R
WORLAND        MOCLDY    77  41  27 NW13      30.03F
SHERIDAN       LGT RAIN  68  60  75 W12       30.09R
BUFFALO        MOCLDY    72  52  49 NW18      30.15R
GILLETTE       TSTM      66  57  72 N24G37    30.06R
HULETT         FAIR      73  52  46 MISG      30.06
NEWCASTLE      FAIR      77  43  29 N8        30.02

$$
WYZ014>020-022>026-101>103-220400-
CENTRAL WYOMING

CITY           SKY/WX    TMP DP  RH WIND       PRES   REMARKS
BIG PINEY      CLEAR     66  39  37 NE15      30.29R
PINEDALE       CLEAR     59  41  51 W8        30.31R
DUBOIS         FAIR      54  43  66 NW10      30.31R
LANDER         CLEAR     71  40  32 NW8       30.14R
RIVERTON       CLEAR     73  36  25 NW20      30.14R
CASPER         CLEAR     77  39  25 N14       30.12R
DOUGLAS        CLEAR     78  39  24 W5        30.07R

$$
WYZ021-027>030-104>119-220400-
SOUTHERN WYOMING

CITY           SKY/WX    TMP DP  RH WIND       PRES   REMARKS
EVANSTON       CLEAR     71  29  21 SW7       30.28R
KEMMERER       CLEAR    N/A N/A N/A W7        30.30R
ROCK SPRINGS   CLEAR     77  29  17 NW10      30.24R
DIXON          FAIR      73  35  24 E3        30.25R
RAWLINS        PTCLDY    71  30  21 NW13G18   30.25R
SARATOGA       FAIR      72  30  21 S13       30.28R
LARAMIE        CLEAR     66  36  32 SW9       30.29R
CHEYENNE       PTCLDY    72  45  37 W9        30.20R
TORRINGTON     PTCLDY    76  54  46 E8        30.00R
PINE BLUFFS    FAIR      75  45  33 SE7       30.12S

$$


USA.gov is the U.S. government's official web portal to all federal, state and local government web resources and services.